Regional Weather Roundup
Issued by NWS

Home | Current Version | Previous Version | Graphics & Text | Print | Product List | Glossary On
Versions: 1 2 3 4 5 6 7 8 9 10 11 12 13 14 15 16 17 18 19 20 21 22 23 24 25 26 27 28 29 30 31 32 33 34 35 36 37 38 39 40 41 42 43 44 45 46 47 48 49 50
000
ASUS43 KLOT 281808
RWRIL

ILLINOIS REGIONAL WEATHER ROUNDUP
NATIONAL WEATHER SERVICE CHICAGO/ROMEOVILLE IL
100 PM CDT THU APR 28 2016

NOTE: "FAIR" INDICATES FEW OR NO CLOUDS BELOW 12,000 FEET WITH NO
SIGNIFICANT WEATHER AND/OR OBSTRUCTIONS TO VISIBILITY.

* THESE STATIONS ARE NOT UNDER NWS QUALITY CONTROL. THEY ALSO MAY NOT
  REPORT WEATHER SUCH AS PRECIPITATION OR FOG.

ILZ001-002-007-009-015-016-024-281900-
NORTHWEST ILLINOIS

CITY           SKY/WX    TMP DP  RH WIND       PRES   REMARKS
MOLINE         CLOUDY    53  47  79 E8        29.85S HAZE
6HR MIN TEMP:  50; 6HR MAX TEMP:  53;

STERLING*      CLOUDY    52  46  82 E12       29.88S
SAVANNA*       CLOUDY    49  45  85 E10       29.88S HAZE
$$

ILZ003-004-008-010-011-017-018-281900-
NORTH CENTRAL ILLINOIS

CITY           SKY/WX    TMP DP  RH WIND       PRES   REMARKS
ROCKFORD       CLOUDY    50  42  74 NE10      29.92R
6HR MIN TEMP:  43; 6HR MAX TEMP:  50;

FREEPORT*      CLOUDY    46  42  84 E9        29.92S
ROCHELLE*      CLOUDY    50  45  84 E9        29.89S
DE KALB*       CLOUDY    49  44  85 E9        29.89S
$$

ILZ005-006-012>014-019>023-281900-
NORTHEAST ILLINOIS

CITY           SKY/WX    TMP DP  RH WIND       PRES   REMARKS
CHICAGO-OHARE  CLOUDY    46  42  86 NE9       29.90R
6HR MIN TEMP:  44; 6HR MAX TEMP:  46;

CHICAGO-MIDWAY CLOUDY    49  42  77 NE12      29.89S
6HR MIN TEMP:  46; 6HR MAX TEMP:  49;

AURORA         CLOUDY    51  45  79 VRB7      29.89S HAZE
6HR MIN TEMP:  46; 6HR MAX TEMP:  51;

LANSING*       CLOUDY    51  47  84 CALM      29.88F
JOLIET*        CLOUDY    51  48  90 NE7       29.88S FOG
WAUKEGAN       CLOUDY    41  38  89 NE12      29.93R
6HR MIN TEMP:  39; 6HR MAX TEMP:  42;

DUPAGE AIRPORT CLOUDY    48  41  76 NE13      29.88F
6HR MIN TEMP:  44; 6HR MAX TEMP:  49;

KANKAKEE*      CLOUDY    54  49  83 CALM      29.87S
WHEELING       CLOUDY    45  39  79 NE7       29.92R
6HR MIN TEMP:  42; 6HR MAX TEMP:  45;

MORRIS*        CLOUDY    51  48  90 NE3       29.87S FOG
ROMEOVILLE*    CLOUDY    49  45  88 NE9       29.88S FOG
NORTHERLY ISL    N/A     45  40  82 NE12        N/A
NORTHERLY ISL    N/A     45  40  82 NE12        N/A
$$

LMZ740>746-281900-
SOUTHERN LAKE MICHIGAN

STATION/POSITION SKY/WX   TEMP    WIND        PRES    VSBY  WAVE
                          AIR SEA DIR/SP/G                  HT/PER
                          (F)     (DEG/KT/KT) (MB)    (MI)  (FT/S)
SOUTHERN BUOY              40 40   70/ 12/ 16 1014.0R         3/ 5
HARRISON CRIB              44      60/ 14/ 15   N/A
BURNHAM HARBOR             45      40/ 11/ 13   N/A
CALUMET HARBOR             45      30/ 11/ 13 1011.6R
BURNS HARBOR               50      90/  7/ 12 1012.5R
MICHIGAN CITY              49     100/  5/  6   N/A
ST. JOSEPH                 49 47  100/  6/  8   N/A           2/ 6
$$

ILZ025>027-034>036-040-047-049-050-058-095>099-281900-
WEST-CENTRAL ILLINOIS

CITY           SKY/WX    TMP DP  RH WIND       PRES   REMARKS
QUINCY         CLOUDY    57  48  72 W14       29.89R
GALESBURG*     CLOUDY    58  51  75 SW9       29.85S
MACOMB*        CLOUDY    58  51  76 W20       29.88S
JACKSONVILLE*  PTSUNNY   63  50  61 W10G17    29.86S
PITTSFIELD*    PTSUNNY   62  49  61 W13G18    29.89R
$$

ILZ028>032-037-038-041>044-048-051>054-059>061-281900-
CENTRAL ILLINOIS

CITY           SKY/WX    TMP DP  RH WIND       PRES   REMARKS
PONTIAC        CLOUDY    54  53  96 NE3       29.87F FOG
BLOOMINGTON    PTSUNNY   63  55  75 N8        29.85F
DECATUR        MOSUNNY   69  50  50 W15G21    29.84R
PEORIA         PTSUNNY   60  52  74 NE5       29.85R
6HR MIN TEMP:  51; 6HR MAX TEMP:  61; 6HR PCP: TRACE;

LACON*         CLOUDY    56  49  78 CALM      29.86R
LINCOLN*       CLOUDY    68  54  60 SW8       29.84R
SPRINGFIELD    MOSUNNY   67  54  63 W20       29.84S
6HR MIN TEMP:  52; 6HR MAX TEMP:  68;

TAYLORVILLE    MOSUNNY   66  52  59 W14G20    29.84F
$$

ILZ033-039-045-046-055>057-062-063-281900-
EAST-CENTRAL ILLINOIS

CITY           SKY/WX    TMP DP  RH WIND       PRES   REMARKS
CHAMPAIGN      MOSUNNY   66  54  65 W8        29.83S
RANTOUL*       PTSUNNY   64  58  80 NW9       29.85R
MATTOON        MOSUNNY   70  54  56 W13G21    29.84R
PARIS*         MOSUNNY   69  56  63 W14       29.84S
$$

ILZ079-100>102-281900-
SOUTHWEST ILLINOIS

CITY           SKY/WX    TMP DP  RH WIND       PRES   REMARKS
BELLEVILLE     MOSUNNY   69  51  52 W13G20    29.86S
CAHOKIA*       MOSUNNY   69  50  50 W13G20    29.88R
SPARTA*        SUNNY     71  49  45 W12       29.89R
$$

ILZ064>066-069>071-074>076-080>082-084>086-088>090-092>094-281900-
SOUTH-CENTRAL ILLINOIS

CITY           SKY/WX    TMP DP  RH WIND       PRES   REMARKS
CARBONDALE     SUNNY     72  49  44 SW13G20   29.87F
6HR MIN TEMP:  56; 6HR MAX TEMP:  72;

CAIRO*         SUNNY     73  53  48 SW10      29.90S
EFFINGHAM*     PTSUNNY   70  55  59 SW12      29.86F
MARION         MOSUNNY   73  52  46 SW12      29.89S
MT. VERNON     MOSUNNY   72  54  53 SW14      29.87S
CENTRALIA*     SUNNY     70  53  54 SW16      29.85S
SALEM*         MOSUNNY   71  51  49 SW10G16   29.86S
METROPOLIS*    SUNNY     74  57  54 SW12      29.90S
$$

ILZ067-068-072-073-078-083-087-091-281900-
SOUTHEAST ILLINOIS

CITY           SKY/WX    TMP DP  RH WIND       PRES   REMARKS
LAWRENCEVILLE  MOSUNNY   73  53  49 W9        29.85S
FLORA*         MOSUNNY   72  53  50 W9        29.85F
FAIRFIELD*     MOSUNNY   72  53  51 SW7       29.85S
HARRISBURG*    SUNNY     73  53  50 W13G20    29.88S
ROBINSON*      MOSUNNY   70  55  58 W12G18    29.85S
CARMI*         MOSUNNY   73  54  52 SW13G21   29.86S
$$

ABBREVIATIONS USED IN REMARKS
   TC - TEMPERATURE IN CELSIUS
  WCI - WIND CHILL INDEX
   HX - HEAT INDEX
  VSB - VISIBILITY
$$




USA.gov is the U.S. government's official web portal to all federal, state and local government web resources and services.